SCOUT X-4 DEB, 732

Orbit data source: Space-Track

SCOUT X-4 DEB, 732 is space debris in LEO originally from a launch on Thu, 19 Dec 1963 UTC launched from the Air Force Western Test Range (AFWTR). Debris objects in space refer to the collection of defunct objects orbiting the Earth. Examples of debris include non-operational satellites, rocket bodies, and fragments generated from explosions, collisions, or faulty payload assembly.

Loading next visibility...
Identifier
732, 1963-053H
Orbit
LEO
Country
Flag of USUS
Related business
Manufacturer
Unknown
Mission
Spacecraft
Bus & Motor
Unknown
Mass
Unknown
Launch date (UTC)
1963-12-19 (62 years ago)
Launch vehicle
Unknown
Launch site
Air Force Western Test Range (AFWTR)
Object type
Payload
Rocket body
Debris
Shape & HBR
Unknown
Radar Cross Section
Small (<0.1 m²)

Expand to show TLE details & history
Last TLE update: 21 hours ago

TLE from 21 hours ago
0 SCOUT X-4 DEB
1 00732U 63053H   25261.18492245  .00013768  00000-0  40979-2 0  9996
2 00732  78.5547 207.5111 0432709  33.4769 329.2948 14.00267026936973
Epoch: 2025-09-18T04:26Z
TLE epoch observation values (Epoch: 2025-09-18T04:26:17.299Z)
Latitude
-0.00009°
Longitude
143.58885°
Altitude
628.85 km
Speed
7.681 km/s
True Right ascension
13h 50m 02s
True Declination
0° 00' 00"
Sunlit
Object was in daylight at epoch
Visualization orbit readout
Latitude
Unknown
Longitude
Unknown
Altitude
Unknown
Speed
Unknown
Apparent Right ascension
Unknown
Apparent Declination
Unknown
Sunlit
N/A
Visualization observer readout
Local Sidereal Time
17:59:42
Azimuth
Unknown
Elevation
Unknown
Doppler factor
Unknown
Orbital elements
Apogee altitude
1,204.705 km
Perigee altitude
575.69 km
Semi-major axis
7,268.334 km
Eccentricity
0.04327
Inclination
78.5547°
RAAN
207.5111°
Arg. of periapsis
33.4769°
True anomaly
326.64062°
Mean anomaly
329.2948°
Eccentric anomaly
327.98028°
Mean motion
3.5026 °/min
Orbital period
102.78 mins
BSTAR
0.0040979
Loading maneuver chart data...
Computing Atmospheric mass density...
Loading historical data...
Loading historical data...
Loading historical data...
Loading historical data...
Loading historical data...
Loading historical data...
Loading historical data...

Documentation

Showing up to 5 results
|